[[{"header":{"parameterUnit":"m.s-1","parameterCategory":1,"la1":30.2991,"la2":30.254,"lo1":-89.0895,"lo2":-89.0444,"dx":0.0017,"dy":0.0017,"nx":28,"ny":28,"refTime":"2022-12-07T03:00:00:Z","depth":0,"parameterNumber":2,"parameterNumberName":"U-component_of_WINDS"},"data":[0,0,0,0,0,0,0,0,0,0,0,0,0,0,0,0,0,0,0,0,0,0,0,0,0,0,0,0,0,0,0,0,0,0,0,0,0,0,0,0,0,0,0,0,0,0,0,0,0,0,0,0,0,0,0,0,0,0,-0.6453,-0.6453,0,-0.6415,-0.6415,-0.6414,-0.6357,-0.6356,-0.6355,-0.6354,-0.6315,-0.6315,-0.6315,0,0,0,0,0,0,0,0,0,0,0,0,0,-0.6477,-0.6477,-0.6453,-0.6453,-0.6452,-0.6415,-0.6415,-0.6414,-0.6357,-0.6356,-0.6355,-0.6354,-0.6315,-0.6315,-0.6315,0,0,0,0,0,0,0,0,0,0,0,0,0,-0.6456,-0.6477,-0.6453,-0.6419,-0.6416,-0.6415,-0.6415,-0.6414,-0.6357,-0.6356,-0.6354,-0.6353,-0.6315,-0.6315,-0.6315,-0.6345,0,0,-0.6315,-0.6314,0,0,0,0,0,0,0,0,-0.6457,-0.6455,-0.6425,-0.6422,-0.6418,-0.6389,-0.6409,-0.6391,-0.6358,-0.638,-0.6354,-0.6352,-0.6341,-0.6339,-0.6335,-0.6343,-0.6341,-0.6315,-0.6314,-0.6314,-0.6314,0,0,0,0,0,0,0,-0.6458,-0.6456,-0.6438,-0.6424,-0.642,-0.6406,-0.6401,-0.6405,-0.6369,-0.6378,-0.6373,-0.637,-0.6339,-0.6335,-0.6334,-0.6341,-0.6315,-0.6314,-0.6314,-0.6314,-0.6371,-0.6373,0,0,0,0,0,0,-0.6465,-0.6458,-0.6439,-0.6437,-0.6434,-0.6407,-0.6402,-0.64,-0.6369,-0.6363,-0.6371,-0.6367,-0.6336,-0.6334,-0.6332,-0.6365,-0.6314,-0.6314,-0.6314,-0.6369,-0.6371,-0.6373,0,0,0,0,0,0,-0.6466,-0.6464,-0.6441,-0.6446,-0.6442,-0.6408,-0.6407,-0.64,-0.6396,-0.6364,-0.6357,-0.6374,-0.6335,-0.6332,-0.6342,-0.6362,-0.6314,-0.6314,-0.6368,-0.637,-0.6372,-0.643,0,0,0,0,0,0,-0.6466,-0.6464,-0.6475,-0.6447,-0.6442,-0.6452,-0.6408,-0.64,-0.6396,-0.6391,-0.6365,-0.6359,-0.6333,-0.6342,-0.6342,-0.6361,-0.6314,-0.6366,-0.6369,-0.6371,-0.6427,-0.6435,-0.6441,0,0,0,0,0,-0.6467,-0.6493,-0.6476,-0.6474,-0.6455,-0.6453,-0.645,-0.642,-0.6398,-0.6409,-0.6388,-0.636,-0.6361,-0.6344,-0.6343,-0.6363,-0.6364,-0.6368,-0.6371,-0.6423,-0.6433,-0.6441,0,0,0,0,0,0,-0.6525,-0.6489,-0.6469,-0.6487,-0.6473,-0.6443,-0.6456,-0.6431,-0.6424,-0.6419,-0.6382,-0.6377,-0.6391,-0.6378,-0.636,-0.639,-0.6358,-0.6362,-0.6398,-0.6407,-0.6414,-0.6417,-0.6314,0,0,0,0,0,-0.6539,-0.6541,-0.6509,-0.6527,-0.6522,-0.649,-0.6488,-0.6466,-0.6451,-0.6445,-0.6425,-0.6411,-0.6408,-0.6407,-0.6402,-0.6424,-0.6418,-0.6438,-0.6445,-0.6451,-0.6455,-0.6466,-0.6474,-0.6385,-0.6385,-0.6385,0,0,-0.6569,-0.655,-0.6553,-0.6538,-0.6525,-0.6528,-0.6486,-0.649,-0.6491,-0.6445,-0.6453,-0.6438,-0.642,-0.6437,-0.6443,-0.6426,-0.6478,-0.6456,-0.6461,-0.6461,-0.647,-0.6479,-0.6486,-0.6387,-0.6387,-0.6386,0,0,-0.6625,-0.6611,-0.6624,-0.6612,-0.6593,-0.6572,-0.6576,-0.6549,-0.6538,-0.6545,-0.6511,-0.6512,-0.6508,-0.6496,-0.649,-0.6543,-0.6517,-0.6542,-0.6581,-0.6592,-0.6599,-0.6605,-0.6624,-0.6631,-0.6546,-0.6546,-0.6546,0,-0.6665,-0.6667,-0.6635,-0.6641,-0.6635,-0.6594,-0.6608,-0.6598,-0.6578,-0.6576,-0.6557,-0.6551,-0.6536,-0.6549,-0.6562,-0.6558,-0.6561,-0.6545,-0.6601,-0.6606,-0.6612,-0.6629,-0.6636,-0.6549,-0.6549,-0.6549,-0.6548,0,-0.6717,-0.6719,-0.6732,-0.6715,-0.6711,-0.6721,-0.669,-0.669,-0.6668,-0.6649,-0.6658,-0.6638,-0.6629,-0.6631,-0.661,-0.6641,-0.6631,-0.6607,-0.6575,-0.6624,-0.6639,-0.6646,-0.6554,-0.6553,-0.6552,-0.6551,0,0,-0.6808,-0.6772,-0.6778,-0.6769,-0.6745,-0.6746,-0.6754,-0.6746,-0.6746,-0.6735,-0.6741,-0.6738,-0.6716,-0.6709,-0.6686,-0.6696,-0.6739,-0.6671,-0.667,-0.6684,-0.6772,-0.679,-0.6799,-0.6722,-0.6723,-0.6724,-0.6774,0,-0.6859,-0.6871,-0.6842,-0.6861,-0.6862,-0.6823,-0.6831,-0.6817,-0.68,-0.6798,-0.6779,-0.6778,-0.6749,-0.6744,-0.6752,-0.6732,-0.6756,-0.6728,-0.6727,-0.6727,-0.6732,-0.6807,-0.6826,-0.6874,-0.678,-0.6781,-0.6781,0,-0.692,-0.6911,-0.6931,-0.6906,-0.6905,-0.6912,-0.6902,-0.6901,-0.6885,-0.6872,-0.6864,-0.6838,-0.6845,-0.6814,-0.6822,-0.6804,-0.6801,-0.6792,-0.6793,-0.6791,-0.6757,-0.6807,-0.6888,-0.6896,-0.6791,-0.679,-0.6789,0,-0.6984,-0.6977,-0.6988,-0.6982,-0.6953,-0.6959,-0.6948,-0.693,-0.6927,-0.6918,-0.6915,-0.6907,-0.6903,-0.6897,-0.687,-0.685,-0.6882,-0.6848,-0.6871,-0.6872,-0.6879,-0.6879,-0.6961,-0.6878,-0.6878,-0.6878,-0.6878,0,-0.7044,-0.7057,-0.7016,-0.7023,-0.7037,-0.7004,-0.7018,-0.7003,-0.6987,-0.699,-0.6957,-0.696,-0.6923,-0.6923,-0.6901,-0.6912,-0.691,-0.69,-0.6894,-0.6902,-0.6904,-0.69,-0.6896,-0.688,-0.6879,-0.6879,-0.6879,0,-0.7118,-0.7091,-0.71,-0.7072,-0.7066,-0.7077,-0.7053,-0.7058,-0.7039,-0.7043,-0.7042,-0.7012,-0.701,-0.6982,-0.6973,-0.6959,-0.6978,-0.6966,-0.6983,-0.6979,-0.7003,-0.7002,-0.7086,-0.7095,-0.7007,-0.7008,-0.7009,0,-0.7158,-0.7167,-0.7141,-0.714,-0.713,-0.713,-0.7126,-0.7094,-0.7092,-0.7074,-0.7082,-0.7077,-0.7071,-0.7069,-0.7046,-0.704,-0.7027,-0.7057,-0.7026,-0.7035,-0.7028,-0.7027,-0.7028,-0.7064,-0.7065,-0.7066,-0.7067,0,-0.7232,-0.7218,-0.7214,-0.7206,-0.7202,-0.7194,-0.7184,-0.7185,-0.715,-0.7149,-0.7147,-0.7142,-0.7134,-0.7129,-0.7119,-0.7107,-0.7081,-0.7077,-0.7082,-0.7091,-0.7101,-0.7095,-0.7001,-0.7075,-0.7074,-0.7074,-0.7073,-0.7073,-0.7289,-0.7296,-0.7278,-0.7275,-0.7264,-0.7255,-0.7259,-0.724,-0.7237,-0.7228,-0.7209,-0.7209,-0.7193,-0.7176,-0.7167,-0.7167,-0.7151,-0.7158,-0.716,-0.7162,-0.7167,-0.7101,-0.7165,-0.7164,-0.7164,-0.7164,-0.7164,0,-0.7361,-0.7348,-0.7346,-0.7332,-0.733,-0.7306,-0.7294,-0.7293,-0.7294,-0.7281,-0.7276,-0.7273,-0.7269,-0.7246,-0.7239,-0.7243,-0.7231,-0.7243,-0.7242,-0.7239,-0.7181,-0.7178,-0.7252,-0.7252,-0.7252,-0.7252,-0.7252,-0.7252,-0.7399,-0.7408,-0.7393,-0.7397,-0.7383,-0.7383,-0.7378,-0.737,-0.736,-0.7358,-0.7354,-0.7339,-0.7322,-0.7314,-0.7309,-0.7302,-0.7301,-0.7317,-0.7306,-0.7252,-0.7244,-0.7235,-0.7232,-0.7317,-0.7317,-0.7364,-0.7365,-0.7365]},{"header":{"parameterUnit":"m.s-1","parameterCategory":1,"la1":30.2991,"la2":30.254,"lo1":-89.0895,"lo2":-89.0444,"dx":0.0017,"dy":0.0017,"nx":28,"ny":28,"refTime":"2022-12-07T03:00:00:Z","depth":0,"parameterNumber":3,"parameterNumberName":"V-component_of_WINDS"},"data":[0,0,0,0,0,0,0,0,0,0,0,0,0,0,0,0,0,0,0,0,0,0,0,0,0,0,0,0,0,0,0,0,0,0,0,0,0,0,0,0,0,0,0,0,0,0,0,0,0,0,0,0,0,0,0,0,0,0,-0.0558,-0.0558,0,-0.0544,-0.0544,-0.0544,-0.0523,-0.0523,-0.0522,-0.0522,-0.0509,-0.0509,-0.0509,0,0,0,0,0,0,0,0,0,0,0,0,0,-0.0566,-0.0566,-0.0558,-0.0558,-0.0557,-0.0544,-0.0544,-0.0544,-0.0523,-0.0523,-0.0522,-0.0522,-0.0509,-0.0509,-0.0509,0,0,0,0,0,0,0,0,0,0,0,0,0,-0.0558,-0.0566,-0.0558,-0.0545,-0.0544,-0.0544,-0.0544,-0.0544,-0.0523,-0.0523,-0.0522,-0.0521,-0.0509,-0.0509,-0.0509,-0.052,0,0,-0.0509,-0.0509,0,0,0,0,0,0,0,0,-0.0559,-0.0558,-0.0547,-0.0546,-0.0545,-0.0535,-0.0542,-0.0536,-0.0523,-0.0531,-0.0522,-0.0521,-0.0518,-0.0517,-0.0516,-0.052,-0.0519,-0.0509,-0.0509,-0.0509,-0.0509,0,0,0,0,0,0,0,-0.0559,-0.0559,-0.0552,-0.0547,-0.0546,-0.0541,-0.0539,-0.0541,-0.0528,-0.053,-0.0529,-0.0528,-0.0517,-0.0516,-0.0515,-0.0519,-0.0509,-0.0509,-0.0509,-0.0509,-0.0532,-0.0532,0,0,0,0,0,0,-0.0562,-0.0559,-0.0553,-0.0552,-0.0551,-0.0541,-0.0539,-0.0539,-0.0528,-0.0526,-0.0528,-0.0527,-0.0516,-0.0515,-0.0515,-0.0527,-0.0509,-0.0509,-0.0509,-0.0531,-0.0532,-0.0532,0,0,0,0,0,0,-0.0562,-0.0561,-0.0553,-0.0555,-0.0554,-0.0541,-0.0541,-0.0539,-0.0537,-0.0526,-0.0524,-0.0529,-0.0516,-0.0515,-0.0519,-0.0527,-0.0509,-0.0509,-0.053,-0.0531,-0.0532,-0.0553,0,0,0,0,0,0,-0.0562,-0.0561,-0.0565,-0.0555,-0.0554,-0.0558,-0.0541,-0.0539,-0.0537,-0.0535,-0.0526,-0.0524,-0.0515,-0.0519,-0.0519,-0.0526,-0.0509,-0.053,-0.0531,-0.0532,-0.0552,-0.0554,-0.0557,0,0,0,0,0,-0.0563,-0.0572,-0.0566,-0.0565,-0.0558,-0.0558,-0.0557,-0.0546,-0.0538,-0.0542,-0.0535,-0.0525,-0.0526,-0.052,-0.0519,-0.0527,-0.0529,-0.053,-0.0532,-0.055,-0.0554,-0.0557,0,0,0,0,0,0,-0.0583,-0.057,-0.0563,-0.057,-0.0565,-0.0554,-0.0559,-0.055,-0.0548,-0.0546,-0.0533,-0.0531,-0.0537,-0.0533,-0.0526,-0.0538,-0.0526,-0.0527,-0.054,-0.0544,-0.0546,-0.0547,-0.0509,0,0,0,0,0,-0.0588,-0.0589,-0.0578,-0.0585,-0.0583,-0.0571,-0.0571,-0.0563,-0.0558,-0.0556,-0.0549,-0.0544,-0.0544,-0.0543,-0.0542,-0.0551,-0.0549,-0.0556,-0.0559,-0.0561,-0.0562,-0.0567,-0.057,-0.0537,-0.0537,-0.0537,0,0,-0.0599,-0.0592,-0.0594,-0.0589,-0.0584,-0.0585,-0.057,-0.0572,-0.0572,-0.0556,-0.0559,-0.0554,-0.0548,-0.0555,-0.0558,-0.0551,-0.0571,-0.0563,-0.0565,-0.0565,-0.0569,-0.0572,-0.0574,-0.0538,-0.0538,-0.0537,0,0,-0.0619,-0.0614,-0.0619,-0.0615,-0.0609,-0.0601,-0.0603,-0.0594,-0.059,-0.0593,-0.0581,-0.0582,-0.0581,-0.0577,-0.0575,-0.0595,-0.0585,-0.0595,-0.0609,-0.0614,-0.0616,-0.0618,-0.0625,-0.0628,-0.0596,-0.0597,-0.0597,0,-0.0634,-0.0635,-0.0623,-0.0626,-0.0624,-0.0609,-0.0614,-0.0611,-0.0605,-0.0604,-0.0597,-0.0596,-0.0591,-0.0597,-0.0602,-0.0601,-0.0602,-0.0596,-0.0617,-0.0619,-0.0621,-0.0627,-0.063,-0.0598,-0.0598,-0.0597,-0.0597,0,-0.0652,-0.0653,-0.0658,-0.0652,-0.0651,-0.0655,-0.0644,-0.0645,-0.0637,-0.0631,-0.0635,-0.0628,-0.0626,-0.0627,-0.0619,-0.0631,-0.0628,-0.0619,-0.0607,-0.0625,-0.0631,-0.0633,-0.0599,-0.0599,-0.0599,-0.0598,0,0,-0.0684,-0.0672,-0.0674,-0.0672,-0.0664,-0.0664,-0.0668,-0.0665,-0.0666,-0.0662,-0.0665,-0.0665,-0.0657,-0.0655,-0.0647,-0.0651,-0.0667,-0.0642,-0.0642,-0.0647,-0.068,-0.0686,-0.0689,-0.0661,-0.0662,-0.0662,-0.068,0,-0.0702,-0.0707,-0.0697,-0.0705,-0.0705,-0.0692,-0.0695,-0.0691,-0.0685,-0.0685,-0.0679,-0.0679,-0.0669,-0.0668,-0.0671,-0.0664,-0.0674,-0.0663,-0.0663,-0.0664,-0.0665,-0.0692,-0.0698,-0.0716,-0.0683,-0.0683,-0.0683,0,-0.0724,-0.0721,-0.0729,-0.0721,-0.0721,-0.0724,-0.0721,-0.0721,-0.0716,-0.0712,-0.071,-0.0701,-0.0704,-0.0693,-0.0697,-0.069,-0.069,-0.0687,-0.0687,-0.0686,-0.0674,-0.0691,-0.0721,-0.0724,-0.0687,-0.0686,-0.0686,0,-0.0746,-0.0744,-0.0748,-0.0747,-0.0738,-0.074,-0.0736,-0.0731,-0.073,-0.0728,-0.0727,-0.0726,-0.0724,-0.0723,-0.0714,-0.0707,-0.072,-0.0708,-0.0716,-0.0716,-0.0719,-0.0718,-0.0748,-0.072,-0.072,-0.0719,-0.0719,0,-0.0767,-0.0772,-0.0758,-0.0761,-0.0766,-0.0755,-0.0761,-0.0756,-0.0752,-0.0753,-0.0742,-0.0744,-0.0732,-0.0733,-0.0726,-0.073,-0.073,-0.0726,-0.0724,-0.0727,-0.0727,-0.0726,-0.0725,-0.072,-0.072,-0.072,-0.072,0,-0.0792,-0.0783,-0.0787,-0.0778,-0.0776,-0.078,-0.0773,-0.0775,-0.0769,-0.0771,-0.0771,-0.0762,-0.0762,-0.0753,-0.0752,-0.0747,-0.0754,-0.075,-0.0756,-0.0754,-0.0763,-0.0762,-0.0793,-0.0796,-0.0766,-0.0766,-0.0766,0,-0.0805,-0.0809,-0.08,-0.0801,-0.0798,-0.0798,-0.0797,-0.0787,-0.0787,-0.0782,-0.0785,-0.0784,-0.0783,-0.0784,-0.0777,-0.0776,-0.0772,-0.0783,-0.0772,-0.0774,-0.0772,-0.0771,-0.0772,-0.0785,-0.0785,-0.0785,-0.0786,0,-0.083,-0.0826,-0.0825,-0.0823,-0.0822,-0.082,-0.0817,-0.0818,-0.0807,-0.0808,-0.0808,-0.0807,-0.0805,-0.0805,-0.0803,-0.0799,-0.0791,-0.0789,-0.0791,-0.0794,-0.0796,-0.0795,-0.0762,-0.0789,-0.0788,-0.0788,-0.0788,-0.0788,-0.0849,-0.0852,-0.0847,-0.0846,-0.0843,-0.0841,-0.0843,-0.0837,-0.0837,-0.0835,-0.0829,-0.083,-0.0826,-0.0822,-0.0819,-0.082,-0.0815,-0.0818,-0.0818,-0.0819,-0.082,-0.0797,-0.082,-0.082,-0.082,-0.082,-0.082,0,-0.0873,-0.0869,-0.0869,-0.0866,-0.0866,-0.0858,-0.0855,-0.0855,-0.0856,-0.0853,-0.0852,-0.0852,-0.0852,-0.0846,-0.0845,-0.0847,-0.0843,-0.0847,-0.0846,-0.0845,-0.0825,-0.0824,-0.085,-0.085,-0.085,-0.085,-0.085,-0.085,-0.0885,-0.0889,-0.0885,-0.0887,-0.0883,-0.0884,-0.0883,-0.0881,-0.0879,-0.0879,-0.0879,-0.0875,-0.087,-0.0869,-0.0869,-0.0867,-0.0867,-0.0872,-0.0869,-0.085,-0.0847,-0.0844,-0.0842,-0.0872,-0.0872,-0.0889,-0.0889,-0.0889]}]]